Time,TemperatureF,DewpointF,PressureIn,WindDirection,WindDirectionDegrees,WindSpeedMPH,WindSpeedGustMPH,Humidity,HourlyPrecipIn,Conditions,Clouds,dailyrainin,SolarRadiationWatts/m^2,SoftwareType,DateUTC
2013-11-13 00:01:00,33.0,33.0,-100.00,WSW,254,1.0,7.0,99,0.00,,,0.01,0.000000,,2013-11-13 08:01:00,
2013-11-13 00:12:00,33.0,33.0,-100.00,WSW,254,1.0,7.0,99,0.00,,,0.01,0.000000,,2013-11-13 08:12:00,
2013-11-13 00:22:00,33.0,33.0,-100.00,WSW,254,1.0,7.0,99,0.00,,,0.01,0.000000,,2013-11-13 08:22:00,
2013-11-13 00:30:00,31.0,31.0,-100.00,West,268,3.0,5.0,99,0.00,,,0.01,0.000000,,2013-11-13 08:30:00,
2013-11-13 00:52:00,31.0,31.0,-100.00,West,268,3.0,5.0,99,0.00,,,0.01,0.000000,,2013-11-13 08:52:00,
2013-11-13 01:03:00,31.0,31.0,-100.00,West,268,3.0,5.0,99,0.00,,,0.01,0.000000,,2013-11-13 09:03:00,
2013-11-13 01:11:00,31.0,31.0,-100.00,West,268,3.0,5.0,99,0.00,,,0.01,0.000000,,2013-11-13 09:11:00,
2013-11-13 01:21:00,31.0,31.0,-100.00,West,268,3.0,5.0,99,0.00,,,0.01,0.000000,,2013-11-13 09:21:00,
2013-11-13 01:30:00,31.0,31.0,-100.00,West,270,1.0,6.0,99,0.00,,,0.01,0.000000,,2013-11-13 09:30:00,
2013-11-13 01:52:00,31.0,31.0,-100.00,West,270,1.0,6.0,99,0.00,,,0.01,0.000000,,2013-11-13 09:52:00,
2013-11-13 02:02:00,31.0,31.0,-100.00,West,270,1.0,6.0,99,0.00,,,0.01,0.000000,,2013-11-13 10:02:00,
2013-11-13 02:13:00,31.0,31.0,-100.00,West,270,1.0,6.0,99,0.00,,,0.01,0.000000,,2013-11-13 10:13:00,
2013-11-13 02:23:00,31.0,31.0,-100.00,West,270,1.0,6.0,99,0.00,,,0.01,0.000000,,2013-11-13 10:23:00,
2013-11-13 02:30:00,32.0,32.0,-100.00,NW,315,1.0,4.0,99,0.00,,,0.01,0.000000,,2013-11-13 10:30:00,
2013-11-13 02:52:00,32.0,32.0,-100.00,NW,315,1.0,4.0,99,0.00,,,0.01,0.000000,,2013-11-13 10:52:00,
2013-11-13 03:02:00,32.0,32.0,-100.00,NW,315,1.0,4.0,99,0.00,,,0.01,0.000000,,2013-11-13 11:02:00,
2013-11-13 03:12:00,32.0,32.0,-100.00,NW,315,1.0,4.0,99,0.00,,,0.01,0.000000,,2013-11-13 11:12:00,
2013-11-13 03:22:00,32.0,32.0,-100.00,NW,315,1.0,4.0,99,0.00,,,0.01,0.000000,,2013-11-13 11:22:00,
2013-11-13 03:30:00,35.0,35.0,-100.00,WSW,251,2.0,5.0,100,0.00,,,-99.99,0.000000,,2013-11-13 11:30:00,
2013-11-13 03:52:00,35.0,35.0,-100.00,WSW,251,2.0,5.0,100,0.00,,,-99.99,0.000000,,2013-11-13 11:52:00,
2013-11-13 04:02:00,35.0,35.0,-100.00,WSW,251,2.0,5.0,100,0.00,,,-99.99,0.000000,,2013-11-13 12:02:00,
2013-11-13 04:11:00,35.0,35.0,-100.00,WSW,251,2.0,5.0,100,0.00,,,-99.99,0.000000,,2013-11-13 12:11:00,
2013-11-13 04:22:00,35.0,35.0,-100.00,WSW,251,2.0,5.0,100,0.00,,,-99.99,0.000000,,2013-11-13 12:22:00,
2013-11-13 04:30:00,36.0,36.0,-100.00,SSE,155,2.0,4.0,100,0.00,,,0.01,0.000000,,2013-11-13 12:30:00,
2013-11-13 04:52:00,36.0,36.0,-100.00,SSE,155,2.0,4.0,100,0.00,,,0.01,0.000000,,2013-11-13 12:52:00,
2013-11-13 05:01:00,36.0,36.0,-100.00,SSE,155,2.0,4.0,100,0.00,,,0.01,0.000000,,2013-11-13 13:01:00,
2013-11-13 05:11:00,36.0,36.0,-100.00,SSE,155,2.0,4.0,100,0.00,,,0.01,0.000000,,2013-11-13 13:11:00,
2013-11-13 05:21:00,36.0,36.0,-100.00,SSE,155,2.0,4.0,100,0.00,,,0.01,0.000000,,2013-11-13 13:21:00,
2013-11-13 05:30:00,36.0,36.0,-100.00,East,79,2.0,7.0,100,0.00,,,0.01,0.000000,,2013-11-13 13:30:00,
2013-11-13 05:52:00,36.0,36.0,-100.00,East,79,2.0,7.0,100,0.00,,,0.01,0.000000,,2013-11-13 13:52:00,
2013-11-13 06:02:00,36.0,36.0,-100.00,East,79,2.0,7.0,100,0.00,,,0.01,0.000000,,2013-11-13 14:02:00,
2013-11-13 06:11:00,36.0,36.0,-100.00,East,79,2.0,7.0,100,0.00,,,0.01,0.000000,,2013-11-13 14:11:00,
2013-11-13 06:22:00,36.0,36.0,-100.00,East,79,2.0,7.0,100,0.00,,,0.01,0.000000,,2013-11-13 14:22:00,
2013-11-13 06:30:00,36.0,36.0,-100.00,NE,34,3.0,8.0,100,0.00,,,0.01,0.000000,,2013-11-13 14:30:00,
2013-11-13 06:53:00,36.0,36.0,-100.00,NE,34,3.0,8.0,100,0.00,,,0.01,0.000000,,2013-11-13 14:53:00,
2013-11-13 07:02:00,36.0,36.0,-100.00,NE,34,3.0,8.0,100,0.00,,,0.01,0.000000,,2013-11-13 15:02:00,
2013-11-13 07:12:00,36.0,36.0,-100.00,NE,34,3.0,8.0,100,0.00,,,0.01,0.000000,,2013-11-13 15:12:00,
2013-11-13 07:21:00,36.0,36.0,-100.00,NE,34,3.0,8.0,100,0.00,,,0.01,0.000000,,2013-11-13 15:21:00,
2013-11-13 07:30:00,36.0,36.0,-100.00,WSW,248,2.0,4.0,100,0.01,,,0.02,4.000000,,2013-11-13 15:30:00,
2013-11-13 07:53:00,36.0,36.0,-100.00,WSW,248,2.0,4.0,100,0.01,,,0.02,4.000000,,2013-11-13 15:53:00,
2013-11-13 08:03:00,36.0,36.0,-100.00,WSW,248,2.0,4.0,100,0.01,,,0.02,4.000000,,2013-11-13 16:03:00,
2013-11-13 08:12:00,36.0,36.0,-100.00,WSW,248,2.0,4.0,100,0.01,,,0.02,4.000000,,2013-11-13 16:12:00,
2013-11-13 08:23:00,36.0,36.0,-100.00,WSW,248,2.0,4.0,100,0.01,,,0.02,4.000000,,2013-11-13 16:23:00,
2013-11-13 08:30:00,37.0,37.0,-100.00,NW,306,3.0,5.0,100,0.00,,,-99.99,50.000000,,2013-11-13 16:30:00,
2013-11-13 08:53:00,37.0,37.0,-100.00,NW,306,3.0,5.0,100,0.00,,,-99.99,50.000000,,2013-11-13 16:53:00,
2013-11-13 09:02:00,37.0,37.0,-100.00,NW,306,3.0,5.0,100,0.00,,,-99.99,50.000000,,2013-11-13 17:02:00,
2013-11-13 09:12:00,37.0,37.0,-100.00,NW,306,3.0,5.0,100,0.00,,,-99.99,50.000000,,2013-11-13 17:12:00,
2013-11-13 09:22:00,37.0,37.0,-100.00,NW,306,3.0,5.0,100,0.00,,,-99.99,50.000000,,2013-11-13 17:22:00,
2013-11-13 09:30:00,38.0,38.0,-100.00,NNE,16,1.0,5.0,100,0.00,,,0.01,111.000000,,2013-11-13 17:30:00,
2013-11-13 09:52:00,38.0,38.0,-100.00,NNE,16,1.0,5.0,100,0.00,,,0.01,111.000000,,2013-11-13 17:52:00,
2013-11-13 10:02:00,38.0,38.0,-100.00,NNE,16,1.0,5.0,100,0.00,,,0.01,111.000000,,2013-11-13 18:02:00,
2013-11-13 10:12:00,38.0,38.0,-100.00,NNE,16,1.0,5.0,100,0.00,,,0.01,111.000000,,2013-11-13 18:12:00,
2013-11-13 10:23:00,38.0,38.0,-100.00,NNE,16,1.0,5.0,100,0.00,,,0.01,111.000000,,2013-11-13 18:23:00,
2013-11-13 10:30:00,39.0,39.0,-100.00,ESE,109,2.0,5.0,100,0.00,,,0.01,153.000000,,2013-11-13 18:30:00,
2013-11-13 10:52:00,39.0,39.0,-100.00,ESE,109,2.0,5.0,100,0.00,,,0.01,153.000000,,2013-11-13 18:52:00,
2013-11-13 11:02:00,39.0,39.0,-100.00,ESE,109,2.0,5.0,100,0.00,,,0.01,153.000000,,2013-11-13 19:02:00,
2013-11-13 11:11:00,39.0,39.0,-100.00,ESE,109,2.0,5.0,100,0.00,,,0.01,153.000000,,2013-11-13 19:11:00,
2013-11-13 11:21:00,39.0,39.0,-100.00,ESE,109,2.0,5.0,100,0.00,,,0.01,153.000000,,2013-11-13 19:21:00,
2013-11-13 11:30:00,40.0,40.0,-100.00,NNE,16,2.0,6.0,100,0.00,,,0.01,196.000000,,2013-11-13 19:30:00,
2013-11-13 11:52:00,40.0,40.0,-100.00,NNE,16,2.0,6.0,100,0.00,,,0.01,196.000000,,2013-11-13 19:52:00,
2013-11-13 12:02:00,40.0,40.0,-100.00,NNE,16,2.0,6.0,100,0.00,,,0.01,196.000000,,2013-11-13 20:02:00,
2013-11-13 12:11:00,40.0,40.0,-100.00,NNE,16,2.0,6.0,100,0.00,,,0.01,196.000000,,2013-11-13 20:11:00,
2013-11-13 12:22:00,40.0,40.0,-100.00,NNE,16,2.0,6.0,100,0.00,,,0.01,196.000000,,2013-11-13 20:22:00,
2013-11-13 12:30:00,42.0,42.0,-100.00,East,92,4.0,5.0,100,0.00,,,0.01,248.000000,,2013-11-13 20:30:00,
2013-11-13 12:52:00,42.0,42.0,-100.00,East,92,4.0,5.0,100,0.00,,,0.01,248.000000,,2013-11-13 20:52:00,
2013-11-13 13:01:00,42.0,42.0,-100.00,East,92,4.0,5.0,100,0.00,,,0.01,248.000000,,2013-11-13 21:01:00,
2013-11-13 13:11:00,42.0,42.0,-100.00,East,92,4.0,5.0,100,0.00,,,0.01,248.000000,,2013-11-13 21:11:00,
2013-11-13 13:21:00,42.0,42.0,-100.00,East,92,4.0,5.0,100,0.00,,,0.01,248.000000,,2013-11-13 21:21:00,
2013-11-13 13:30:00,42.0,42.0,-100.00,East,87,5.0,8.0,100,0.00,,,0.01,177.000000,,2013-11-13 21:30:00,
2013-11-13 13:53:00,42.0,42.0,-100.00,East,87,5.0,8.0,100,0.00,,,0.01,177.000000,,2013-11-13 21:53:00,
2013-11-13 14:03:00,42.0,42.0,-100.00,East,87,5.0,8.0,100,0.00,,,0.01,177.000000,,2013-11-13 22:03:00,
2013-11-13 14:13:00,42.0,42.0,-100.00,East,87,5.0,8.0,100,0.00,,,0.01,177.000000,,2013-11-13 22:13:00,
2013-11-13 14:23:00,42.0,42.0,-100.00,East,87,5.0,8.0,100,0.00,,,0.01,177.000000,,2013-11-13 22:23:00,
2013-11-13 14:30:00,45.0,45.0,-100.00,NNW,328,2.0,7.0,100,0.00,,,0.01,211.000000,,2013-11-13 22:30:00,
2013-11-13 14:53:00,45.0,45.0,-100.00,NNW,328,2.0,7.0,100,0.00,,,0.01,211.000000,,2013-11-13 22:53:00,
2013-11-13 15:02:00,45.0,45.0,-100.00,NNW,328,2.0,7.0,100,0.00,,,0.01,211.000000,,2013-11-13 23:02:00,
2013-11-13 15:11:00,45.0,45.0,-100.00,NNW,328,2.0,7.0,100,0.00,,,0.01,211.000000,,2013-11-13 23:11:00,
2013-11-13 15:22:00,45.0,45.0,-100.00,NNW,328,2.0,7.0,100,0.00,,,0.01,211.000000,,2013-11-13 23:22:00,
2013-11-13 15:30:00,46.0,45.0,-100.00,NW,315,3.0,6.0,96,0.00,,,0.01,255.000000,,2013-11-13 23:30:00,
2013-11-13 15:53:00,46.0,45.0,-100.00,NW,315,3.0,6.0,96,0.00,,,0.01,255.000000,,2013-11-13 23:53:00,
2013-11-13 16:02:00,46.0,45.0,-100.00,NW,315,3.0,6.0,96,0.00,,,0.01,255.000000,,2013-11-14 00:02:00,
2013-11-13 16:11:00,46.0,45.0,-100.00,NW,315,3.0,6.0,96,0.00,,,0.01,255.000000,,2013-11-14 00:11:00,
2013-11-13 16:22:00,46.0,45.0,-100.00,NW,315,3.0,6.0,96,0.00,,,0.01,255.000000,,2013-11-14 00:22:00,
2013-11-13 16:30:00,42.0,41.0,-100.00,WNW,288,3.0,5.0,98,0.00,,,-99.99,62.000000,,2013-11-14 00:30:00,
2013-11-13 16:52:00,42.0,41.0,-100.00,WNW,288,3.0,5.0,98,0.00,,,-99.99,62.000000,,2013-11-14 00:52:00,
2013-11-13 17:02:00,42.0,41.0,-100.00,WNW,288,3.0,5.0,98,0.00,,,-99.99,62.000000,,2013-11-14 01:02:00,
2013-11-13 17:11:00,42.0,41.0,-100.00,WNW,288,3.0,5.0,98,0.00,,,-99.99,62.000000,,2013-11-14 01:11:00,
2013-11-13 17:21:00,42.0,41.0,-100.00,WNW,288,3.0,5.0,98,0.00,,,-99.99,62.000000,,2013-11-14 01:21:00,
2013-11-13 17:30:00,40.0,40.0,-100.00,WSW,255,3.0,5.0,100,0.00,,,-99.99,1.000000,,2013-11-14 01:30:00,
2013-11-13 17:52:00,40.0,40.0,-100.00,WSW,255,3.0,5.0,100,0.00,,,-99.99,1.000000,,2013-11-14 01:52:00,
2013-11-13 18:01:00,40.0,40.0,-100.00,WSW,255,3.0,5.0,100,0.00,,,-99.99,1.000000,,2013-11-14 02:01:00,
2013-11-13 18:12:00,40.0,40.0,-100.00,WSW,255,3.0,5.0,100,0.00,,,-99.99,1.000000,,2013-11-14 02:12:00,
2013-11-13 18:21:00,40.0,40.0,-100.00,WSW,255,3.0,5.0,100,0.00,,,-99.99,1.000000,,2013-11-14 02:21:00,
2013-11-13 18:30:00,41.0,41.0,-100.00,WSW,242,0.0,4.0,99,0.00,,,0.01,0.000000,,2013-11-14 02:30:00,
2013-11-13 19:11:00,41.0,41.0,-100.00,WSW,242,0.0,4.0,99,0.00,,,0.01,0.000000,,2013-11-14 03:11:00,
2013-11-13 19:21:00,41.0,41.0,-100.00,WSW,242,0.0,4.0,99,0.00,,,0.01,0.000000,,2013-11-14 03:21:00,
2013-11-13 19:30:00,40.0,39.0,-100.00,WNW,302,3.0,8.0,97,0.00,,,0.01,0.000000,,2013-11-14 03:30:00,
2013-11-13 19:54:00,40.0,39.0,-100.00,WNW,302,3.0,8.0,97,0.00,,,0.01,0.000000,,2013-11-14 03:54:00,
2013-11-13 20:03:00,40.0,39.0,-100.00,WNW,302,3.0,8.0,97,0.00,,,0.01,0.000000,,2013-11-14 04:03:00,
2013-11-13 20:14:00,40.0,39.0,-100.00,WNW,302,3.0,8.0,97,0.00,,,0.01,0.000000,,2013-11-14 04:14:00,
2013-11-13 20:24:00,40.0,39.0,-100.00,WNW,302,3.0,8.0,97,0.00,,,0.01,0.000000,,2013-11-14 04:24:00,
2013-11-13 20:30:00,49.0,38.0,-100.00,South,188,5.0,11.0,66,0.00,,,0.01,0.000000,,2013-11-14 04:30:00,
2013-11-13 20:54:00,49.0,38.0,-100.00,South,188,5.0,11.0,66,0.00,,,0.01,0.000000,,2013-11-14 04:54:00,
2013-11-13 21:03:00,49.0,38.0,-100.00,South,188,5.0,11.0,66,0.00,,,0.01,0.000000,,2013-11-14 05:03:00,
2013-11-13 21:23:00,49.0,38.0,-100.00,South,188,5.0,11.0,66,0.00,,,0.01,0.000000,,2013-11-14 05:23:00,
2013-11-13 21:30:00,48.0,37.0,-100.00,SW,233,12.0,18.0,65,0.00,,,0.01,0.000000,,2013-11-14 05:30:00,
2013-11-13 21:53:00,48.0,37.0,-100.00,SW,233,12.0,18.0,65,0.00,,,0.01,0.000000,,2013-11-14 05:53:00,
2013-11-13 22:03:00,48.0,37.0,-100.00,SW,233,12.0,18.0,65,0.00,,,0.01,0.000000,,2013-11-14 06:03:00,
2013-11-13 22:12:00,48.0,37.0,-100.00,SW,233,12.0,18.0,65,0.00,,,0.01,0.000000,,2013-11-14 06:12:00,
2013-11-13 22:21:00,48.0,37.0,-100.00,SW,233,12.0,18.0,65,0.00,,,0.01,0.000000,,2013-11-14 06:21:00,
2013-11-13 22:30:00,40.0,35.0,-100.00,NW,310,4.0,16.0,83,0.00,,,0.01,0.000000,,2013-11-14 06:30:00,
2013-11-13 22:52:00,40.0,35.0,-100.00,NW,310,4.0,16.0,83,0.00,,,0.01,0.000000,,2013-11-14 06:52:00,
2013-11-13 23:02:00,40.0,35.0,-100.00,NW,310,4.0,16.0,83,0.00,,,0.01,0.000000,,2013-11-14 07:02:00,
2013-11-13 23:11:00,40.0,35.0,-100.00,NW,310,4.0,16.0,83,0.00,,,0.01,0.000000,,2013-11-14 07:11:00,
2013-11-13 23:22:00,40.0,35.0,-100.00,NW,310,4.0,16.0,83,0.00,,,0.01,0.000000,,2013-11-14 07:22:00,
2013-11-13 23:30:00,39.0,35.0,-100.00,NW,307,4.0,7.0,86,0.00,,,0.01,0.000000,,2013-11-14 07:30:00,
2013-11-13 23:53:00,39.0,35.0,-100.00,NW,307,4.0,7.0,86,0.00,,,0.01,0.000000,,2013-11-14 07:53:00,